Lago Vista, TX

12:54 AM CDT on September 26, 2017 (GMT -0500)
Lago Vista

Weather History for KRYW - November, 2013

Change the Weather History Date:

Tuesday, November 26, 2013

  Actual Average (KGTU) Record (KGTU)
Temperature  
Mean Temperature 44 °F -  
Max Temperature 51 °F 64 °F 84 °F (2012)
Min Temperature 36 °F 44 °F 26 °F (2010)
Degree Days  
Heating Degree Days 22    
Moisture  
Dew Point 32 °F    
Average Humidity 70    
Maximum Humidity 92    
Minimum Humidity 45    
Precipitation  
Precipitation 0.00 in - - ()
Sea Level Pressure  
Sea Level Pressure 30.22 in    
Wind  
Wind Speed 10 mph (NNW)    
Max Wind Speed 17 mph    
Max Gust Speed 30 mph    
Visibility 10 miles    
Events      
Averages and records for this station are not official NWS values.
T = Trace of Precipitation, MM = Missing Value Source: NWS Daily Summary

Daily Weather History Graph

Daily Weather History Graph

Search for Another Location

Airport or City:

Trip Planner

Search our weather history database for the weather conditions in past years. The results will help you decide how hot, cold, wet, or windy it might be!

Date:

Astronomy

Nov. 26, 2013 Rise Set
Actual Time 7:07 AM CST 5:31 PM CST
Civil Twilight 6:41 AM CST 5:57 PM CST
Nautical Twilight 6:11 AM CST 6:26 PM CST
Astronomical Twilight 5:42 AM CST 6:55 PM CST
Moon 12:38 AM CST 1:14 PM CST
Length of Visible Light 11h 15m
Length of Day
10h 23m
Last Quarter, 41% of the Moon is Illuminated
Nov 26
Last Quarter
Dec 2
New
Dec 9
First Quarter
Dec 17
Full
Dec 25
Last Quarter

Hourly Weather History & Observations

Time (CST) Temp. Windchill Dew Point Humidity Pressure Visibility Wind Dir Wind Speed Gust Speed Precip Events Conditions
12:15 AM 37.6 °F 33.1 °F 34.3 °F 88% 30.18 in 10.0 mi North 5.8 mph - N/A   Overcast
12:35 AM 37.4 °F 30.8 °F 34.3 °F 89% 30.17 in 10.0 mi North 9.2 mph - N/A   Overcast
12:55 AM 37.6 °F 33.1 °F 34.5 °F 89% 30.17 in 10.0 mi North 5.8 mph - N/A   Overcast
1:15 AM 37.4 °F 30.8 °F 34.7 °F 90% 30.16 in 10.0 mi North 9.2 mph - N/A   Overcast
1:35 AM 37.4 °F 29.3 °F 34.2 °F 88% 30.12 in 10.0 mi North 12.7 mph 19.6 mph N/A   Overcast
1:55 AM 37.0 °F 31.0 °F 34.0 °F 89% 30.14 in 10.0 mi North 8.1 mph 17.3 mph N/A   Overcast
2:15 AM 36.7 °F 29.4 °F 34.2 °F 91% 30.13 in 10.0 mi North 10.4 mph 17.3 mph N/A   Drizzle
2:35 AM 36.5 °F 31.0 °F 34.3 °F 92% 30.13 in 10.0 mi North 6.9 mph - N/A   Light Drizzle
2:55 AM 36.9 °F 30.7 °F 34.7 °F 92% 30.16 in 10.0 mi North 8.1 mph - N/A   Overcast
3:15 AM 36.9 °F 30.7 °F 34.2 °F 90% 30.15 in 10.0 mi NNW 8.1 mph 18.4 mph N/A   Overcast
3:35 AM 36.9 °F 31.4 °F 34.0 °F 89% 30.15 in 10.0 mi NNW 6.9 mph - N/A   Overcast
3:55 AM 36.9 °F 30.1 °F 33.8 °F 89% 30.15 in 10.0 mi NNW 9.2 mph - N/A   Overcast
4:15 AM 37.0 °F 30.4 °F 33.1 °F 86% 30.15 in 10.0 mi NNW 9.2 mph 17.3 mph N/A   Overcast
4:35 AM 36.9 °F 29.1 °F 32.5 °F 84% 30.14 in 10.0 mi NNW 11.5 mph 20.7 mph N/A   Overcast
4:55 AM 36.7 °F 28.9 °F 32.4 °F 84% 30.15 in 10.0 mi NNW 11.5 mph 17.3 mph N/A   Overcast
5:15 AM 36.7 °F 29.9 °F 32.5 °F 85% 30.15 in 10.0 mi NNW 9.2 mph 16.1 mph N/A   Overcast
5:35 AM 36.7 °F 30.5 °F 32.9 °F 86% 30.15 in 10.0 mi North 8.1 mph 19.6 mph N/A   Overcast
5:55 AM 36.5 °F 29.7 °F 33.1 °F 87% 30.16 in 10.0 mi North 9.2 mph 16.1 mph N/A   Overcast
6:15 AM 36.5 °F 30.3 °F 33.1 °F 87% 30.17 in 10.0 mi NNW 8.1 mph 17.3 mph N/A   Overcast
6:35 AM 36.5 °F 29.7 °F 32.9 °F 87% 30.18 in 10.0 mi NNW 9.2 mph - N/A   Overcast
6:55 AM 36.5 °F 30.3 °F 32.2 °F 84% 30.18 in 10.0 mi North 8.1 mph 16.1 mph N/A   Overcast
7:15 AM 36.5 °F 29.2 °F 32.0 °F 84% 30.20 in 10.0 mi NNW 10.4 mph 16.1 mph N/A   Overcast
7:35 AM 36.7 °F 29.9 °F 32.0 °F 83% 30.20 in 10.0 mi NNW 9.2 mph 17.3 mph N/A   Overcast
7:55 AM 36.7 °F 28.4 °F 32.0 °F 83% 30.20 in 10.0 mi NNW 12.7 mph 20.7 mph N/A   Overcast
8:15 AM 37.0 °F 28.9 °F 32.4 °F 83% 30.21 in 10.0 mi NNW 12.7 mph 17.3 mph N/A   Overcast
8:35 AM 37.2 °F 30.0 °F 32.9 °F 84% 30.22 in 10.0 mi NNW 10.4 mph - N/A   Overcast
8:55 AM 37.6 °F 29.1 °F 32.9 °F 83% 30.22 in 10.0 mi NW 13.8 mph 17.3 mph N/A   Overcast
9:15 AM 38.3 °F 30.9 °F 32.9 °F 81% 30.23 in 10.0 mi NNW 11.5 mph 21.9 mph N/A   Overcast
9:35 AM 38.3 °F 31.9 °F 32.9 °F 81% 30.23 in 10.0 mi NNW 9.2 mph 20.7 mph N/A   Overcast
9:55 AM 39.6 °F 31.7 °F 33.3 °F 78% 30.23 in 10.0 mi NNW 13.8 mph 24.2 mph N/A   Overcast
10:15 AM 39.2 °F 30.8 °F 32.9 °F 78% 30.24 in 10.0 mi NNW 15.0 mph 23.0 mph N/A   Overcast
10:35 AM 39.4 °F 30.4 °F 32.9 °F 78% 30.24 in 10.0 mi NNW 17.3 mph 23.0 mph N/A   Overcast
10:55 AM 39.9 °F 31.8 °F 33.1 °F 77% 30.23 in 10.0 mi NNW 15.0 mph 23.0 mph N/A   Overcast
11:15 AM 41.2 °F 35.0 °F 33.6 °F 74% 30.22 in 10.0 mi NNW 10.4 mph 21.9 mph N/A   Overcast
11:35 AM 41.9 °F 34.6 °F 33.8 °F 73% 30.21 in 10.0 mi NNW 13.8 mph 24.2 mph N/A   Overcast
11:55 AM 41.9 °F 34.6 °F 33.3 °F 71% 30.21 in 10.0 mi NW 13.8 mph 23.0 mph N/A   Overcast
12:15 PM 42.1 °F 35.7 °F 34.0 °F 73% 30.20 in 10.0 mi NW 11.5 mph 20.7 mph N/A   Overcast
12:35 PM 42.8 °F 35.8 °F 34.2 °F 72% 30.20 in 10.0 mi WNW 13.8 mph 21.9 mph N/A   Overcast
12:55 PM 44.8 °F 38.7 °F 34.7 °F 68% 30.19 in 10.0 mi NW 12.7 mph 19.6 mph N/A   Overcast
1:15 PM 45.1 °F 37.9 °F 34.5 °F 66% 30.18 in 10.0 mi NW 17.3 mph 29.9 mph N/A   Overcast
1:35 PM 45.7 °F 39.1 °F 34.7 °F 65% 30.18 in 10.0 mi NW 15.0 mph 24.2 mph N/A   Overcast
1:55 PM 46.6 °F - 34.9 °F 64% 30.18 in 10.0 mi NW 11.5 mph 26.5 mph N/A   Overcast
2:15 PM 47.1 °F - 34.3 °F 61% 30.18 in 10.0 mi NW 17.3 mph 26.5 mph N/A   Overcast
2:35 PM 49.8 °F - 34.7 °F 56% 30.18 in 10.0 mi NNW 15.0 mph 24.2 mph N/A   Mostly Cloudy
2:55 PM 50.7 °F - 34.2 °F 53% 30.18 in 10.0 mi NW 15.0 mph 24.2 mph N/A   Scattered Clouds
3:15 PM 50.9 °F - 33.4 °F 51% 30.18 in 10.0 mi NW 12.7 mph 23.0 mph N/A   Scattered Clouds
3:35 PM 51.1 °F - 31.8 °F 48% 30.19 in 10.0 mi North 11.5 mph 23.0 mph N/A   Clear
3:55 PM 50.9 °F - 31.5 °F 47% 30.20 in 10.0 mi NW 12.7 mph 24.2 mph N/A   Clear
4:15 PM 50.9 °F - 30.4 °F 45% 30.20 in 10.0 mi NNW 11.5 mph 24.2 mph N/A   Clear
4:35 PM 50.5 °F - 30.4 °F 46% 30.21 in 10.0 mi NNW 13.8 mph 20.7 mph N/A   Clear
4:55 PM 50.0 °F - 30.6 °F 47% 30.21 in 10.0 mi NNW 10.4 mph 19.6 mph N/A   Clear
5:15 PM 49.1 °F - 30.4 °F 49% 30.22 in 10.0 mi NNW 11.5 mph 19.6 mph N/A   Clear
5:35 PM 48.0 °F - 30.4 °F 51% 30.22 in 10.0 mi NW 10.4 mph 16.1 mph N/A   Clear
5:55 PM 47.1 °F - 30.4 °F 52% 30.23 in 10.0 mi NW 9.2 mph 18.4 mph N/A   Clear
6:15 PM 47.1 °F - 29.3 °F 50% 30.24 in 10.0 mi NW 9.2 mph 17.3 mph N/A   Clear
6:35 PM 46.0 °F 43.1 °F 29.8 °F 53% 30.26 in 10.0 mi NW 5.8 mph - N/A   Clear
6:55 PM 45.5 °F 41.3 °F 30.2 °F 55% 30.27 in 10.0 mi NW 8.1 mph - N/A   Clear
7:15 PM 44.8 °F 40.4 °F 30.6 °F 57% 30.28 in 10.0 mi NW 8.1 mph - N/A   Clear
7:35 PM 44.6 °F 39.7 °F 30.2 °F 57% 30.29 in 10.0 mi NW 9.2 mph - N/A   Clear
7:55 PM 44.4 °F 39.0 °F 29.7 °F 56% 30.30 in 10.0 mi NNW 10.4 mph 16.1 mph N/A   Clear
8:15 PM 43.9 °F 38.8 °F 28.9 °F 56% 30.31 in 10.0 mi NW 9.2 mph - N/A   Clear
8:35 PM 44.6 °F 39.7 °F 27.0 °F 50% 30.32 in 10.0 mi NNW 9.2 mph 26.5 mph N/A   Clear
8:55 PM 43.9 °F 37.9 °F 26.6 °F 51% 30.32 in 10.0 mi North 11.5 mph 23.0 mph N/A   Clear
9:15 PM 43.2 °F 37.4 °F 26.6 °F 52% 30.32 in 10.0 mi NNW 10.4 mph 20.7 mph N/A   Clear
9:35 PM 42.4 °F 37.5 °F 26.6 °F 54% 30.33 in 10.0 mi NNW 8.1 mph 16.1 mph N/A   Clear
9:55 PM 42.3 °F 36.3 °F 26.8 °F 54% 30.34 in 10.0 mi NNW 10.4 mph 16.1 mph N/A   Clear
10:15 PM 42.3 °F 36.3 °F 26.6 °F 54% 30.34 in 10.0 mi NW 10.4 mph 20.7 mph N/A   Clear
10:35 PM 42.3 °F 35.9 °F 26.6 °F 54% 30.34 in 10.0 mi NNW 11.5 mph 21.9 mph N/A   Clear
10:55 PM 42.3 °F 35.5 °F 26.6 °F 54% 30.35 in 10.0 mi NNW 12.7 mph 24.2 mph N/A   Clear
11:15 PM 42.3 °F 35.5 °F 26.6 °F 54% 30.35 in 10.0 mi NNW 12.7 mph 21.9 mph N/A   Clear
11:35 PM 41.9 °F 35.0 °F 27.1 °F 56% 30.35 in 10.0 mi NNW 12.7 mph 18.4 mph N/A   Clear
11:55 PM 41.9 °F 35.4 °F 27.1 °F 56% 30.35 in 10.0 mi NNW 11.5 mph 24.2 mph N/A   Clear